Meteo orario Abdullino

Oggi, 18 Giugno, Venerdi

Tempo Temperatura Precipitazioni Vento Pressione Umidità
00:00 +13°C° 0 mm 2 m/s 747 mm Hg 74%
01:00 +12°C° 0 mm 2 m/s 747 mm Hg 81%
02:00 +10°C° 0 mm 2 m/s 748 mm Hg 84%
03:00 +9°C° 0 mm 2 m/s 748 mm Hg 88%
04:00 +9°C° 0 mm 1 m/s 749 mm Hg 92%
05:00 +10°C° 0 mm 2 m/s 749 mm Hg 82%
06:00 +12°C° 0 mm 3 m/s 749 mm Hg 72%
07:00 +14°C° 0 mm 3 m/s 750 mm Hg 62%
08:00 +14°C° 0 mm 4 m/s 750 mm Hg 57%
09:00 +15°C° 0 mm 4 m/s 750 mm Hg 51%
10:00 +16°C° 0 mm 5 m/s 751 mm Hg 46%
11:00 +17°C° 0 mm 5 m/s 751 mm Hg 43%
12:00 +19°C° 0 mm 5 m/s 751 mm Hg 40%
13:00 +19°C° 0 mm 5 m/s 751 mm Hg 37%
14:00 +19°C° 0 mm 5 m/s 752 mm Hg 36%
15:00 +20°C° 0 mm 5 m/s 752 mm Hg 35%
16:00 +20°C° 0 mm 5 m/s 752 mm Hg 35%
17:00 +19°C° 0 mm 4 m/s 752 mm Hg 40%
18:00 +18°C° 0 mm 3 m/s 753 mm Hg 45%
19:00 +17°C° 0 mm 2 m/s 753 mm Hg 50%
20:00 +15°C° 0 mm 2 m/s 753 mm Hg 58%
21:00 +13°C° 0 mm 2 m/s 753 mm Hg 66%
22:00 +11°C° 0 mm 1 m/s 754 mm Hg 74%
23:00 +10°C° 0 mm 1 m/s 754 mm Hg 77%

Domani, 19 Giugno, Sabato

Tempo Temperatura Precipitazioni Vento Pressione Umidità
00:00 +10°C° 0 mm 1 m/s 754 mm Hg 79%
01:00 +9°C° 0 mm 1 m/s 754 mm Hg 82%
02:00 +10°C° 0 mm 1 m/s 754 mm Hg 80%
03:00 +10°C° 0 mm 1 m/s 754 mm Hg 78%
04:00 +10°C° 0 mm 1 m/s 754 mm Hg 76%
05:00 +12°C° 0 mm 2 m/s 754 mm Hg 72%
06:00 +13°C° 0 mm 2 m/s 754 mm Hg 68%
07:00 +14°C° 0 mm 3 m/s 754 mm Hg 64%
08:00 +13°C° 0.2 mm 3 m/s 754 mm Hg 73%
09:00 +13°C° 0.2 mm 3 m/s 754 mm Hg 82%
10:00 +12°C° 0.2 mm 3 m/s 754 mm Hg 90%
11:00 +12°C° 0.8 mm 3 m/s 753 mm Hg 92%
12:00 +12°C° 0.8 mm 3 m/s 753 mm Hg 95%
13:00 +11°C° 0.8 mm 3 m/s 753 mm Hg 97%
14:00 +14°C° 0.2 mm 4 m/s 752 mm Hg 89%
15:00 +18°C° 0.2 mm 4 m/s 751 mm Hg 81%
16:00 +21°C° 0.2 mm 5 m/s 750 mm Hg 74%
17:00 +20°C° 0.4 mm 4 m/s 750 mm Hg 80%
18:00 +20°C° 0.4 mm 4 m/s 749 mm Hg 85%
19:00 +19°C° 0.4 mm 4 m/s 749 mm Hg 91%
20:00 +19°C° 0.6 mm 4 m/s 749 mm Hg 93%
21:00 +19°C° 0.6 mm 4 m/s 748 mm Hg 94%
22:00 +19°C° 0.6 mm 4 m/s 748 mm Hg 96%
23:00 +19°C° 0.1 mm 4 m/s 748 mm Hg 96%

Dopodomani, 20 Giugno, Domenica

Tempo Temperatura Precipitazioni Vento Pressione Umidità
00:00 +18°C° 0.1 mm 4 m/s 748 mm Hg 97%
01:00 +18°C° 0.1 mm 4 m/s 748 mm Hg 97%
02:00 +18°C° 0.1 mm 4 m/s 748 mm Hg 97%
03:00 +18°C° 0.1 mm 4 m/s 748 mm Hg 97%
04:00 +18°C° 0.1 mm 4 m/s 748 mm Hg 97%
05:00 +19°C° 0 mm 4 m/s 748 mm Hg 95%
06:00 +19°C° 0 mm 4 m/s 748 mm Hg 93%
07:00 +20°C° 0 mm 4 m/s 748 mm Hg 91%
08:00 +22°C° 0 mm 5 m/s 748 mm Hg 77%
09:00 +23°C° 0 mm 6 m/s 748 mm Hg 63%
10:00 +26°C° 0 mm 7 m/s 748 mm Hg 49%
11:00 +26°C° 0 mm 7 m/s 748 mm Hg 44%
12:00 +24°C° 0 mm 6 m/s 749 mm Hg 40%
13:00 +24°C° 0 mm 6 m/s 749 mm Hg 35%
14:00 +24°C° 0 mm 6 m/s 750 mm Hg 36%
15:00 +24°C° 0 mm 6 m/s 750 mm Hg 37%
16:00 +23°C° 0 mm 6 m/s 750 mm Hg 37%
17:00 +22°C° 0 mm 5 m/s 751 mm Hg 41%
18:00 +20°C° 0 mm 4 m/s 751 mm Hg 45%
19:00 +19°C° 0 mm 4 m/s 751 mm Hg 50%
20:00 +17°C° 0 mm 3 m/s 752 mm Hg 55%
21:00 +15°C° 0 mm 2 m/s 752 mm Hg 61%
22:00 +13°C° 0 mm 1 m/s 752 mm Hg 67%
23:00 +12°C° 0 mm 1 m/s 753 mm Hg 67%

21 Giugno, Lunedi

Tempo Temperatura Precipitazioni Vento Pressione Umidità
00:00 +11°C° 0 mm 1 m/s 753 mm Hg 67%
01:00 +11°C° 0 mm 1 m/s 753 mm Hg 67%
02:00 +10°C° 0 mm 1 m/s 753 mm Hg 67%
03:00 +10°C° 0 mm 1 m/s 754 mm Hg 68%
04:00 +10°C° 0 mm 1 m/s 754 mm Hg 68%
05:00 +12°C° 0 mm 1 m/s 754 mm Hg 62%
06:00 +14°C° 0 mm 1 m/s 755 mm Hg 55%
07:00 +16°C° 0 mm 1 m/s 755 mm Hg 49%
08:00 +18°C° 0 mm 1 m/s 755 mm Hg 44%
09:00 +20°C° 0 mm 1 m/s 755 mm Hg 39%
10:00 +20°C° 0 mm 2 m/s 755 mm Hg 34%
11:00 +21°C° 0 mm 2 m/s 754 mm Hg 35%
12:00 +23°C° 0 mm 2 m/s 754 mm Hg 36%
13:00 +24°C° 0 mm 2 m/s 754 mm Hg 36%
14:00 +24°C° 0 mm 2 m/s 754 mm Hg 40%
15:00 +24°C° 0 mm 2 m/s 753 mm Hg 43%
16:00 +24°C° 0 mm 2 m/s 753 mm Hg 46%
17:00 +23°C° 0 mm 2 m/s 753 mm Hg 52%
18:00 +23°C° 0 mm 2 m/s 752 mm Hg 59%
19:00 +21°C° 0 mm 2 m/s 752 mm Hg 65%
20:00 +20°C° 0 mm 2 m/s 751 mm Hg 71%
21:00 +18°C° 0 mm 2 m/s 751 mm Hg 77%
22:00 +17°C° 0 mm 2 m/s 751 mm Hg 84%
23:00 +17°C° 0.2 mm 2 m/s 751 mm Hg 87%

22 Giugno, Martedi

Tempo Temperatura Precipitazioni Vento Pressione Umidità
00:00 +17°C° 0.2 mm 2 m/s 750 mm Hg 90%
01:00 +17°C° 0.2 mm 2 m/s 750 mm Hg 93%
02:00 +17°C° 0.7 mm 2 m/s 750 mm Hg 95%
03:00 +16°C° 0.7 mm 2 m/s 750 mm Hg 97%
04:00 +16°C° 0.7 mm 2 m/s 750 mm Hg 99%
05:00 +17°C° 0.2 mm 2 m/s 750 mm Hg 97%
06:00 +19°C° 0.2 mm 2 m/s 750 mm Hg 96%
07:00 +20°C° 0.2 mm 3 m/s 750 mm Hg 95%
08:00 +22°C° 0.2 mm 3 m/s 749 mm Hg 89%
09:00 +23°C° 0.2 mm 4 m/s 749 mm Hg 83%
10:00 +26°C° 0.2 mm 4 m/s 749 mm Hg 77%
11:00 +27°C° 0.4 mm 4 m/s 749 mm Hg 71%
12:00 +28°C° 0.4 mm 5 m/s 749 mm Hg 66%
13:00 +29°C° 0.4 mm 5 m/s 749 mm Hg 60%
14:00 +29°C° 0.3 mm 5 m/s 748 mm Hg 63%
15:00 +28°C° 0.3 mm 5 m/s 748 mm Hg 65%
16:00 +28°C° 0.3 mm 5 m/s 748 mm Hg 67%
17:00 +27°C° 0.1 mm 4 m/s 748 mm Hg 67%
18:00 +26°C° 0.1 mm 4 m/s 749 mm Hg 67%
19:00 +25°C° 0.1 mm 4 m/s 749 mm Hg 67%
20:00 +22°C° 0 mm 4 m/s 749 mm Hg 70%
21:00 +20°C° 0 mm 3 m/s 750 mm Hg 74%
22:00 +18°C° 0 mm 3 m/s 751 mm Hg 78%
23:00 +17°C° 0 mm 3 m/s 751 mm Hg 83%

23 Giugno, Mercoledi

Tempo Temperatura Precipitazioni Vento Pressione Umidità
00:00 +16°C° 0 mm 3 m/s 751 mm Hg 87%
01:00 +14°C° 0 mm 3 m/s 752 mm Hg 92%
02:00 +13°C° 0 mm 3 m/s 752 mm Hg 93%
03:00 +13°C° 0 mm 2 m/s 753 mm Hg 95%
04:00 +12°C° 0 mm 2 m/s 753 mm Hg 96%
05:00 +12°C° 0 mm 3 m/s 753 mm Hg 86%
06:00 +13°C° 0 mm 3 m/s 754 mm Hg 76%
07:00 +14°C° 0 mm 4 m/s 754 mm Hg 67%
08:00 +17°C° 0 mm 4 m/s 754 mm Hg 59%
09:00 +18°C° 0 mm 4 m/s 754 mm Hg 52%
10:00 +20°C° 0 mm 4 m/s 755 mm Hg 44%
11:00 +21°C° 0 mm 4 m/s 755 mm Hg 41%
12:00 +21°C° 0 mm 4 m/s 755 mm Hg 38%
13:00 +22°C° 0 mm 4 m/s 755 mm Hg 35%
14:00 +24°C° 0 mm 3 m/s 755 mm Hg 34%
15:00 +24°C° 0 mm 3 m/s 755 mm Hg 34%
16:00 +24°C° 0 mm 3 m/s 755 mm Hg 34%
17:00 +23°C° 0 mm 2 m/s 755 mm Hg 42%
18:00 +21°C° 0 mm 2 m/s 755 mm Hg 50%
19:00 +21°C° 0 mm 1 m/s 755 mm Hg 58%
20:00 +19°C° 0 mm 1 m/s 755 mm Hg 61%
21:00 +16°C° 0 mm 1 m/s 755 mm Hg 65%
22:00 +14°C° 0 mm 1 m/s 755 mm Hg 68%
23:00 +13°C° 0 mm 1 m/s 755 mm Hg 70%
Mostrare altro

Abbiamo bisogno del tuo consenso

Meteoprog e i nostri fornitori di servizi possono memorizzare e accedere a dati personali come cookie, identificatori di dispositivi o altre tecnologie simili sul tuo dispositivo e possono elaborare tali dati per personalizzare i contenuti e gli annunci, nonché fornire funzionalità dei social media e analizzarne il traffico.

  • Archiviare e/o accedere alle informazioni sul tuo dispositivo

    Cookie, identificatori di dispositivi o altre informazioni possono essere memorizzati o resi accessibili sul tuo dispositivo per le finalità sopra indicate.

  • Annunci e contenuti personalizzati, misurazione di annunci e contenuti, approfondimenti sul pubblico e sviluppo di prodotti

    Gli annunci e i contenuti possono essere personalizzati in base a un profilo. È possibile aggiungere più dati per personalizzare meglio annunci e contenuti. È possibile misurare il rendimento degli annunci e dei contenuti. È possibile ricavare informazioni sul pubblico che ha visto gli annunci e i contenuti. Tali dati possono essere utilizzati per sviluppare o migliorare l'esperienza, i sistemi e il software dell'utente.

Cliccando su “Accetto”, acconsenti all'uso di cookie, identificatori di dispositivo, web beacon o altre tecnologie simili. Puoi modificare le impostazioni nel browser del tuo dispositivo.

Per determinati scopi, è possibile fare affidamento su interessi legali, piuttosto che sul consenso. Puoi approfondire questo argomento consultando la nostra Informativa sulla privacy e sui cookie.